{"data":{"norad_id":49296,"intl_designator":"2021-090T","name":"ONEWEB-0370","alt_names":[],"object_type":"PAYLOAD","status":"ACTIVE","operator":null,"country":"UK","launch_date":"2021-10-14","launch_site_code":"VOSTO","launch_vehicle":null,"mission":null,"orbit_class":"UNKNOWN","rcs_meters":null,"size_class":null,"mass_kg":null,"dimensions":null,"purposes":["comms"],"wikipedia_slug":null,"has_3d_model":false,"image_url":null,"decayed_at":null,"tle_current":{"epoch":"2026-09-19T22:39:36.777024Z","epoch_age_seconds":73700,"freshness":"FRESH","line1":"1 49296U 21090T   26262.94417566  .00000090  00000+0  19026-3 0  9991","line2":"2 49296  87.9142 255.5362 0001684  90.9302 269.2024 13.20771977242370","mean_motion":13.20771977,"eccentricity":0.0001684,"inclination_deg":87.9142,"raan_deg":255.5362,"arg_perigee_deg":90.9302,"mean_anomaly_deg":269.2024,"bstar":0.00019026,"rev_number":24237,"period_min":109.02714662911,"perigee_km":1180.4996578684,"apogee_km":1183.0458354711,"semimajor_km":7559.9097466698,"source":"CELESTRAK","updated_at":"2026-09-20T09:00:44.672119Z"}}}